Regional Weather Roundup
Issued by NWS

Home | Current Version | Previous Version | Graphics & Text | Print | Product List | Glossary On
Versions: 1 2 3 4 5 6 7 8 9 10 11 12 13 14 15 16 17 18 19 20 21 22 23 24 25 26 27 28 29 30 31 32 33 34 35 36 37 38 39 40 41 42 43 44 45 46 47 48 49 50
000
ASUS43 KMKX 280711
RWRWI

WISCONSIN REGIONAL WEATHER ROUNDUP
NATIONAL WEATHER SERVICE MILWAUKEE/SULLIVAN WI
200 AM CDT WED JUN 28 2017

NOTE: "FAIR" INDICATES FEW OR NO CLOUDS BELOW 12,000 FEET WITH NO
SIGNIFICANT WEATHER AND/OR OBSTRUCTIONS TO VISIBILITY.

WIZ001-002-006>008-014>016-023>028-280800-
NORTHWEST WISCONSIN

CITY           SKY/WX    TMP DP  RH WIND       PRES   REMARKS
SUPERIOR ARPT  NOT AVBL
ASHLAND        CLEAR     59  47  64 S8        29.82F
HAYWARD        PTCLDY    59  46  62 SE7       29.80F
SIREN          CLOUDY    63  46  54 CALM      29.76F
CUMBERLAND     PTCLDY    57  45  62 SE6       29.79F
RICE LAKE      PTCLDY    59  48  66 SE8       29.81F
CHETEK         PTCLDY    58  50  74 SE3       29.80F
LADYSMITH      MOCLDY    58  48  69 SE7       29.85F
EAU CLAIRE     CLOUDY    63  47  55 S15       29.81F
MENOMONIE      CLOUDY    60  50  69 SE10      29.80F
NEW RICHMOND   CLOUDY    63  44  51 SE12      29.78R
OSCEOLA        CLOUDY    62  49  61 SE8       29.78S
$$

WIZ003>005-009-010-017-018-280800-
NORTH CENTRAL WISCONSIN

CITY           SKY/WX    TMP DP  RH WIND       PRES   REMARKS
MANITOWISH WTR CLEAR     55  49  79 S7        29.89F
ARBOR VITAE    CLEAR     55  48  78 S6        29.89F
WOODRUFF       CLEAR     55  48  78 S6        29.89F
RHINELANDER    CLEAR     57  48  72 SW7       29.92F
EAGLE RIVER    CLEAR     55  46  71 CALM      29.91F
LAND O LAKES   PTCLDY    55  48  78 S5        29.92F
PHILLIPS       CLOUDY    55  47  75 S6        29.87F
TOMAHAWK       NOT AVBL
MEDFORD        CLOUDY    54  47  79 SE8       29.88F
MERRILL        CLEAR     56  48  75 S3        29.92F
$$

WIZ029-030-035-036-043>047-280800-
CENTRAL WISCONSIN

CITY           SKY/WX    TMP DP  RH WIND       PRES   REMARKS
WAUSAU           N/A    N/A N/A N/A MISG      29.90F
MOSINEE        CLEAR     52  48  87 SE6       29.92F
MARSHFIELD     PTCLDY    54  46  74 S6        29.89F
STEVENS POINT  PTCLDY    56  46  70 S6        29.93F
WAUPACA        CLEAR     55  52  89 CALM      29.94F
WAUTOMA        CLOUDY    54  50  86 SE3       29.94F
WISC RAPIDS    CLOUDY    56  48  74 S5        29.92F
CAMP DOUGLAS   PTCLDY    51  47  89 E6        29.89F
$$

WIZ011>013-019>022-031-037>040-048>050-280800-
NORTHEAST WISCONSIN

CITY           SKY/WX    TMP DP  RH WIND       PRES   REMARKS
ANTIGO         CLEAR     51  48  87 SW5       29.94F
SHAWANO        CLEAR     59  52  77 CALM      29.94F
OCONTO         CLEAR     58  50  76 CALM      29.94F
STURGEON BAY     N/A     60  50  69 S10       29.97F
GREEN BAY      CLEAR     58  53  84 S5        29.96F
MANITOWOC      PTCLDY    60  49  66 S6        29.99F
APPLETON       PTCLDY    55  45  67 S7        29.95F
CLINTONVILLE   CLEAR     54  46  76 SE5       29.94F
OSHKOSH        CLEAR     55  49  80 S7        29.96F
$$

WIZ032>034-041-042-053>061-280800-
SOUTHWEST WISCONSIN

CITY           SKY/WX    TMP DP  RH WIND       PRES   REMARKS
LA CROSSE      CLOUDY    69  48  47 S7        29.85F
SPARTA         PTCLDY    64  47  55 S15       29.86F
VIROQUA        CLOUDY    60  48  65 SE9       29.88F
BOSCOBEL       CLOUDY    65  47  52 VRB3      29.90F
PRAIRIE DU CHI CLOUDY    64  46  53 SE7       29.89R
PLATTEVILLE    CLEAR     59  50  71 SE10      29.92F
$$

WIZ056-057-062-063-064-067-068-280800-
SOUTH CENTRAL WISCONSIN

CITY           SKY/WX    TMP DP  RH WIND       PRES   REMARKS
REEDSBURG      CLEAR     60  47  61 S8        29.91F
BARABOO/DELLS  CLEAR     56  47  71 S6        29.92F
LONE ROCK      CLOUDY    58  50  75 E10       29.90F
MINERAL POINT  CLOUDY    61  48  63 SE10      29.92F
MADISON        CLEAR     61  49  64 S8        29.95F
MIDDLETON      CLEAR     57  48  70 S3        29.95F
WATERTOWN      NOT AVBL
MONROE         PTCLDY    59  45  58 S10       29.95F
JANESVILLE     CLEAR     55  46  71 S7        29.97F
$$

WIZ051-052-058>065-066-070>072-280800-
SOUTHEAST WISCONSIN

CITY           SKY/WX    TMP DP  RH WIND       PRES   REMARKS
MILWAUKEE      PTCLDY    60  49  66 S6        30.02F
WAUKESHA       PTCLDY    55  46  71 S5        30.01F
MILWAUKEE/TIMM CLEAR     57  45  62 S5        30.01F
RACINE         CLEAR     59  47  64 SW6       30.03F
KENOSHA        CLEAR     57  47  69 S5        30.02F
FOND DU LAC    CLEAR     57  48  72 S7        29.98F
SHEBOYGAN      CLEAR     54  52  93 SW6       30.00F
WEST BEND      PTCLDY    54  50  87 CALM      30.00F
JUNEAU         PTCLDY    57  48  70 S6        29.98F
$$

LSZ147-162-280800-
LAKE SUPERIOR

STATION/POSITION TIME  TEMP    WIND        PRES    WAVE
                       AIR SEA DIR/SP/G            HT/PER
                 (UTC) (F)     (DEG/KT/KT) (MB)    (FT/S)
W MID LAKE BUOY  0650   48 39  210/ 12/ 12 1010.0F   1
DEVILS ISLAND    0700   64     190/ 14/ 18 1008.8F
SAXON HARBOR     0640   62     180/  3/  6 1009.8F
$$

LMZ867-665-643>646-280800-
LAKE MICHIGAN

STATION/POSITION TIME  TEMP    WIND        PRES    WAVE
                       AIR SEA DIR/SP/G            HT/PER
                 (UTC) (F)     (DEG/KT/KT) (MB)    (FT/S)
CHAMBERS ISLAND  0640   65     170/  5/ 10 1013.2F
S GREEN BAY BUOY 0700   66     200/ 16/ 19 1013.9
N MID LAKE BUOY  0650   57 55  190/ 12/ 14 1014.7F   3/ 5
NORTHPORT PIER   0640   61     180/  3/  6 1013.9F
KEWAUNEE LAKESHO 0642          190/  8/ 13   N/A
SHEBOYGAN LAKESH 0700   60     210/  7/  8 1015.5F
PORT WASHINGTON  0630   57     250/  3/  5 1016.9F
ATWATER BUOY     0609   60 56  180/  8/ 10 1016.5F
MILWAUKEE LAKESH 0650   63     210/  8/  9   N/A
S MID LAKE BUOY  0650   64 61  180/ 14/ 16 1017.0F   1/ 3
KENOSHA   LAKESH 0700   64     210/  6/ 10 1016.3
$$

TC  - TEMPERATURE IN CELSIUS
VSB - VISIBILITY IN STATUTE MILES
WCI - WIND CHILL INDEX
HX  - HEAT INDEX




USA.gov is the U.S. government's official web portal to all federal, state and local government web resources and services.